This is the latest recevied weather packets stored in our database for station/object KC3AWA. If no packets are shown the sender has not sent any weather packets the latest 10 day(s).
| Time | Temp. | Humidity | Pressure | Rain* | Wind** | Luminosity | Snow |
|---|---|---|---|---|---|---|---|
| 1777894853 | 10° C | 58% | 1010.5 hPa | 0 mm | - | 127 W/m² | - |
| 1777894550 | 10° C | 62% | 1010.6 hPa | 0 mm | - | 109 W/m² | - |
| 1777894248 | 9.44° C | 61% | 1010.5 hPa | 0 mm | - | 99 W/m² | - |
| 1777893945 | 9.44° C | 61% | 1010.5 hPa | 0 mm | - | 87 W/m² | - |
| 1777893641 | 9.44° C | 62% | 1010.4 hPa | 0 mm | - | 82 W/m² | - |
| 1777893338 | 8.89° C | 62% | 1010.5 hPa | 0 mm | - | 74 W/m² | - |
| 1777893033 | 8.89° C | 64% | 1010.4 hPa | 0 mm | - | 61 W/m² | - |
| 1777892731 | 8.89° C | 63% | 1010.2 hPa | 0 mm | - | 50 W/m² | - |
| 1777892427 | 8.89° C | 64% | 1010.3 hPa | 0 mm | - | 43 W/m² | - |
| 1777892123 | 8.33° C | 64% | 1010.3 hPa | 0 mm | - | 37 W/m² | - |
| 1777891820 | 8.33° C | 64% | 1010.4 hPa | 0 mm | - | 30 W/m² | - |
| 1777891517 | 8.33° C | 65% | 1010.4 hPa | 0 mm | - | 25 W/m² | - |
| 1777891214 | 7.78° C | 63% | 1010.6 hPa | 0 mm | - | 20 W/m² | - |
| 1777890913 | 7.78° C | 65% | 1010.4 hPa | 0 mm | - | 16 W/m² | - |
| 1777890609 | 7.78° C | 66% | 1010.4 hPa | 0 mm | - | 12 W/m² | - |
| 1777890304 | 7.78° C | 65% | 1010.5 hPa | 0 mm | - | 8 W/m² | - |
| 1777890001 | 8.33° C | 66% | 1010.2 hPa | 0 mm | - | 6 W/m² | - |
| 1777889699 | 7.78° C | 65% | 1010.5 hPa | 0 mm | - | 3 W/m² | - |
| 1777889396 | 8.33° C | 65% | 1010.3 hPa | 0 mm | - | 2 W/m² | - |
| 1777889094 | 8.33° C | 63% | 1010.4 hPa | 0 mm | - | 1 W/m² | - |
| 1777888790 | 8.89° C | 65% | 1010.6 hPa | 0 mm | - | 0 W/m² | - |
| 1777888487 | 8.33° C | 63% | 1010.4 hPa | 0 mm | - | 0 W/m² | - |
| 1777888183 | 8.33° C | 64% | 1010.7 hPa | 0 mm | - | 0 W/m² | - |
| 1777887881 | 8.33° C | 63% | 1010.6 hPa | 0 mm | - | 0 W/m² | - |
| 1777887577 | 8.89° C | 63% | 1010.7 hPa | 0 mm | - | 0 W/m² | - |
* Rain latest hour (hover to see other rain measurements)
** Current wind speed in m/s (hover to see current wind gust speed)